#timestamp,LO_Frequency,Hit 
1503990015.0,286046995.5,N
1503990015.9,286046995.5,N
1503990035.8,286046998.9,N
1503990055.6,286046995.3,N
1503990075.4,286046997.1,N
1503990095.3,286046997.2,N
1503990115.1,286046996.0,N
1503990116.0,286046996.0,N
1503990135.8,286046995.7,N
1503990155.7,286046996.1,N
1503990175.5,286046994.1,N
1503990195.3,286046993.5,P
1503990215.2,286046999.6,N
1503990235.9,286046999.3,N
1503990255.7,286046996.5,N
1503990275.6,286046997.1,N
1503990295.4,286046995.3,N
1503990315.2,286046995.3,N
1503990335.1,286046997.6,N
1503990336.0,286046997.6,N
1503990355.8,286046994.9,N
1503990375.6,286046997.5,N
1503990395.4,286046994.9,N
1503990415.3,286046995.0,N
1503990435.1,286046993.7,P
1503990455.9,286046997.0,N
1503990475.7,286046996.8,N
1503990495.5,286046998.4,N
1503990515.3,286047002.8,N
1503990535.2,286046999.1,N
1503990555.0,286047000.3,N
1503990555.9,286047000.3,N
1503990575.7,286046996.8,N
1503990595.6,286046998.8,N
1503990615.4,286046999.0,N
1503990635.2,286046996.6,N
1503990655.1,286046999.4,N
1503990656.0,286046999.4,N
1503990675.8,286047000.4,N
1503990695.6,286047000.9,N
1503990715.5,286047002.6,N
1503990735.3,286047002.6,N
1503990755.1,286047000.9,N
1503990775.8,286046998.1,N
1503990795.7,286047001.2,N
1503990815.5,286047001.0,N
1503990835.3,286047000.9,N
1503990855.2,286046998.5,N
1503990875.0,286047001.1,N
1503990875.9,286047001.1,N
1503990895.7,286047001.2,N
1503990915.6,286047002.4,N
1503990935.4,286047000.8,N
1503990955.2,286046999.5,N
1503990975.1,286046999.0,N
1503990976.0,286046999.0,N
1503990995.8,286046998.4,N
1503991015.6,286046997.4,N
1503991035.5,286046999.0,N
1503991055.3,286047001.0,N
1503991075.1,286047001.2,N
1503991095.9,286046999.0,N
1503991115.7,286046998.0,N
1503991135.5,286046997.1,N
1503991155.3,286046996.7,N
1503991175.2,286046997.2,N
1503991195.0,286046999.5,N
1503991195.9,286046999.5,N
1503991215.7,286046997.1,N
1503991235.6,286046996.2,N
1503991255.4,286046997.5,N
1503991275.2,286046996.8,N
1503991295.1,286046996.9,N
1503991296.0,286046996.9,N
1503991315.8,286046995.6,N
1503991335.6,286046997.9,N
1503991355.5,286046995.5,N
1503991375.3,286046992.1,P
1503991395.1,286046993.9,N
1503991415.9,286046993.5,N
1503991435.7,286046993.6,N
1503991455.5,286046994.5,N
1503991475.4,286046993.9,P
1503991495.2,286047000.3,N
1503991515.0,286047000.2,N
1503991515.9,286047000.2,N
1503991535.8,286046999.1,N
1503991555.6,286046999.1,N
1503991575.4,286046996.6,N
1503991595.3,286046998.2,N
1503991615.1,286046998.9,N
1503991616.0,286046998.9,N
1503991635.8,286046998.5,N
1503991655.7,286046998.7,N
1503991675.5,286046999.5,N
1503991695.3,286046999.6,N
1503991715.1,286046998.9,N
1503991735.9,286046997.2,N
1503991755.7,286046999.2,N
1503991775.5,286046999.1,N
1503991795.4,286046997.9,N
1503991815.2,286046997.0,N
1503991835.0,286046995.2,N
1503991835.9,286046995.2,N
1503991855.8,286046996.3,N
1503991875.6,286046997.7,N
1503991895.4,286046999.4,N
1503991915.3,286046998.5,N
1503991935.1,286047000.6,N
1503991936.0,286047000.6,N
1503991955.8,286047002.0,N
1503991975.7,286047004.3,N
1503991995.5,286047002.6,N
1503992015.3,286046998.6,N
1503992035.1,286046998.6,N
1503992055.9,286046998.5,N
1503992075.7,286047000.7,N
1503992095.5,286046996.8,N
1503992115.4,286046995.1,N
1503992135.2,286046995.9,N
1503992155.0,286046993.4,P
1503992155.9,286046993.4,N
1503992175.8,286046994.9,N
1503992195.6,286046997.5,N
1503992215.4,286046996.6,N
1503992235.3,286046997.9,N
1503992255.1,286046997.7,N
1503992256.0,286046997.7,N
1503992275.8,286046997.5,N
1503992295.7,286046994.9,N
1503992315.5,286046995.5,N
1503992335.3,286046995.4,N
1503992355.2,286046997.5,N
1503992375.9,286046995.9,N
1503992395.7,286046996.1,N
1503992415.6,286046996.0,N
1503992435.4,286046995.2,P
1503992455.2,286047000.0,N
1503992475.1,286047002.5,N
1503992476.0,286047002.5,N
1503992495.8,286047004.0,N
1503992515.6,286047003.7,N
1503992535.5,286047005.6,N
1503992555.3,286047007.1,N
1503992575.1,286047005.0,N
1503992595.8,286047007.0,N
1503992615.7,286047007.2,N
1503992635.5,286047005.9,N
1503992655.3,286047003.4,N
1503992675.2,286047004.2,N
1503992695.9,286047002.6,N
1503992715.7,286047002.8,N
1503992735.6,286047001.5,N
1503992755.4,286047004.3,N
1503992775.2,286047001.8,N
1503992795.1,286047002.8,N
1503992796.0,286047002.8,N
1503992815.8,286047001.7,N
1503992835.6,286047002.7,N
1503992855.5,286047002.6,N
1503992875.3,286047002.4,N
1503992895.1,286047000.4,N
1503992915.8,286047000.1,N
1503992935.7,286047001.0,N
1503992955.5,286046998.5,N
1503992975.3,286047001.0,N
1503992995.2,286047002.8,N
1503993015.9,286047002.4,N
1503993035.7,286047002.0,N
1503993055.6,286047004.3,N
1503993075.4,286047002.0,N
1503993095.2,286047002.8,N
1503993115.1,286046999.8,N
1503993116.0,286046999.8,N
1503993135.8,286046999.9,N
1503993155.6,286047002.6,N
1503993175.5,286046999.9,N
1503993195.3,286047001.5,N
1503993215.1,286047000.1,N
1503993235.8,286047000.3,N
1503993255.7,286047001.1,N
1503993275.5,286047000.3,N
1503993295.3,286046998.3,N
1503993315.2,286046998.3,N
1503993335.0,286047001.1,N
1503993335.9,286047001.1,N
1503993355.7,286047000.9,N
1503993375.6,286046998.8,N
1503993395.4,286046999.0,N
1503993415.2,286046997.4,N
1503993435.1,286046998.4,N
1503993436.0,286046998.4,N
1503993455.8,286046999.1,N
1503993475.6,286046995.1,N
1503993495.5,286046995.8,N
1503993515.3,286046995.4,N
1503993535.1,286046993.7,N
1503993555.9,286046993.7,N
1503993575.7,286046994.9,N
1503993595.5,286046995.7,N
